User: anonymous   Login
Location: Boncourt
(49.6160°N, 3.9448°E)
Time: 22:35:23
(UTC+00:00)
Language:

FENGYUN 3D - Orbit

View from above orbital plane
View from above orbital plane
View from above satellite
View from above satellite

Ground track
Ground track

The orbit data is extracted from the following two-line orbital elements,

1 43010U 17072A   24052.49493546  .00000185  00000-0  10988-3 0  9995
2 43010  98.8963   6.5620 0001100 356.1061   4.0105 14.19287384324866
Epoch (UTC): 21 February 2024 11:52:42
Eccentricity: 0.0001100
inclination: 98.8963°
perigee height: 827 km
apogee height: 828 km
right ascension of ascending node: 6.5620°
argument of perigee: 356.1061°
revolutions per day: 14.19287384
mean anomaly at epoch: 4.0105°
orbit number at epoch: 32486

The dashed part of the orbit path shows where the satellite is in the earth's shadow,  

DLR